Temp
18 17 17 16 16 15 15 15 14 13 13 13 12 12 12 12 12 11 11 11 11 12
16 16 16 15 15 15 14 13 13 12 12 12 11 11 11 11 11 10 10 11 11 11
14 14 14 13 13 12 12 12 12 11 10 10 10 9 9 9 9 9 9 10 10 8
14 13 13 12 11 11 10 10 10 10 9 9 8 8 8 8 8 8 8 8 8 7
12 12 11 11 11 10 9 9 8 8 8 8 7 7 7 7 7 7 7 7 7 7
11 10 10 9 9 9 8 8 7 7 6 6 6 6 6 6 6 6 6 6 6 6
10 10 9 9 8 8 7 7 6 6 5 5 5 5 4 4 5 5 5 4 5 5
10 9 8 8 7 7 6 5 5 5 5 4 4 3 3 3 3 3 3 3 3 3
9 8 8 7 7 6 5 5 4 4 4 4 3 3 3 2 3 3 2 2 2 2
8 8 7 7 6 5 4 2 3 3 3 2 2 2 2 2 2 2 1 1 1 1
8 8 7 6 5 4 3 2 2 2 2 2 2 1 2 1 1 1 1 1 1 1
8 7 6 5 4 4 3 2 1 2 2 1 1 1 1 1 1 1 1 1 1 1
8 7 6 5 4 4 2 1 1 1 1 1 1 0 -0 0 0 0 0 0 -0 0
7 6 6 5 4 3 2 1 1 1 1 1 0 0 -0 -0 0 0 0 0 -0 -0
Height
794 798 802 806 807 806 809 810 810 814 815 816 816 817 818 817 817 817 817 817 816 816
794 797 797 802 807 803 808 810 808 811 811 812 811 813 814 813 813 813 813 813 812 811
796 796 800 803 801 807 808 803 806 809 809 809 809 809 811 811 809 810 810 809 809 808
797 799 798 801 800 806 807 802 805 804 804 806 807 807 809 809 807 807 806 806 805 805
796 795 800 799 800 802 803 801 802 803 803 802 804 805 806 805 805 805 804 803 802 801
794 794 797 798 799 799 800 799 800 800 801 801 803 803 803 802 802 802 801 801 800 800
791 794 796 796 795 798 798 798 798 798 800 800 802 802 801 801 799 800 800 801 799 798
789 791 791 793 794 795 795 794 796 797 798 799 800 800 799 799 798 797 798 799 798 798
786 787 788 790 791 791 791 792 794 796 796 795 796 796 796 794 796 797 796 797 798 798
782 783 784 786 787 788 790 792 793 793 794 794 794 793 793 794 794 796 797 796 796 797
779 781 782 784 785 787 788 789 790 791 791 792 792 792 791 792 793 794 795 797 797 797
777 779 780 781 782 784 786 787 787 788 789 789 789 790 790 790 792 793 794 797 797 796
774 776 777 779 780 782 782 783 784 785 786 786 787 787 788 788 791 793 793 795 796 795
771 773 775 778 779 779 780 780 781 781 783 783 784 785 787 788 789 791 791 793 794 795
Wind_Speed
18 19 15 14 15 13 12 12 10 10 8 9 8 9 10 11 11 11 12 12 13 14
19 19 21 17 14 12 13 13 10 10 9 8 8 9 10 11 10 10 10 11 14 15
12 14 12 12 10 11 12 10 8 8 7 6 7 8 10 10 9 10 11 11 9 11
14 12 12 11 11 9 7 4 7 6 7 7 8 9 10 10 9 10 9 10 10 9
14 12 11 10 8 8 7 5 5 6 6 6 8 9 9 9 9 9 8 8 7 7
15 12 11 10 9 6 5 4 5 5 5 6 7 8 8 7 7 8 7 7 8 8
14 13 13 11 7 6 5 5 5 5 6 7 8 9 8 7 7 7 7 6 6 6
16 14 13 11 9 7 5 5 5 6 8 8 9 9 9 8 9 9 7 5 4 4
17 15 14 12 10 7 5 5 6 6 7 6 7 8 8 7 8 8 8 9 8 7
19 17 14 11 8 7 6 6 7 7 6 6 6 4 4 6 8 9 9 10 8 6
18 16 14 14 12 9 10 10 9 8 8 8 6 6 5 7 8 10 10 7 6 4
20 18 18 18 14 11 12 11 11 11 10 10 9 7 7 8 9 10 9 8 7 6
20 19 19 18 15 12 13 13 12 12 11 11 10 8 10 10 10 10 10 8 7 6
17 17 17 16 14 13 13 13 14 13 13 13 11 11 12 11 10 10 10 9 9 10
Wind_Direction
195 192 194 199 192 184 197 208 210 223 242 248 253 262 267 269 270 270 265 259 259 263
190 194 189 189 198 190 201 203 211 237 244 247 255 265 269 270 269 260 253 252 259 266
171 174 181 189 183 201 201 194 220 234 248 263 267 269 270 269 263 259 261 254 255 269
194 194 186 189 179 206 224 222 238 248 254 261 264 265 269 268 260 264 255 241 259 261
192 185 191 192 202 212 225 226 250 262 267 262 262 267 266 262 261 266 252 234 242 249
189 186 191 194 201 217 233 240 262 275 270 252 257 270 262 259 255 244 241 236 237 236
193 195 195 200 214 230 235 234 235 234 242 257 270 270 261 251 231 241 255 252 238 232
198 197 201 208 215 223 227 221 233 253 260 276 284 285 281 247 243 247 236 219 206 199
202 204 207 209 211 218 223 223 231 237 244 250 260 271 279 236 229 231 191 162 150 142
203 204 209 211 217 229 239 229 230 237 241 239 238 248 242 217 211 198 183 169 164 158
208 212 209 210 213 219 226 230 231 232 231 219 205 218 214 217 198 187 179 179 183 194
209 211 209 206 214 221 229 229 225 226 221 212 209 213 208 197 185 184 183 190 193 183
210 215 215 215 212 235 232 230 228 226 223 215 218 215 188 187 187 186 182 188 192 200
214 219 223 220 220 244 234 230 227 224 222 218 218 205 196 194 198 202 196 202 201 195